This is the latest recevied weather packets stored in our database for station/object VA3WWD-2. If no packets are shown the sender has not sent any weather packets the latest 10 day(s).
| Time | Temp. | Humidity | Pressure | Rain* | Wind** | Luminosity | Snow |
|---|---|---|---|---|---|---|---|
| 1777567867 | 5° C | 48% | - | 0 mm | 0 m/s | - | - |
| 1777567569 | 6.11° C | 47% | - | 0 mm | 0 m/s | - | - |
| 1777567271 | 5.56° C | 47% | - | 0 mm | 0 m/s | - | - |
| 1777566970 | 5.56° C | 48% | - | 0 mm | 0 m/s | - | - |
| 1777566672 | 5.56° C | 51% | - | 0 mm | 0 m/s | - | - |
| 1777566374 | 5.56° C | 49% | - | 0 mm | 0 m/s | - | - |
| 1777566073 | 5° C | 51% | - | 0 mm | 0 m/s | - | - |
| 1777565775 | 5° C | 51% | - | 0 mm | 0 m/s | - | - |
| 1777565477 | 6.11° C | 48% | - | 0 mm | 0 m/s | - | - |
| 1777565176 | 4.44° C | 49% | - | 0 mm | 0 m/s | - | - |
| 1777564878 | 5° C | 50% | - | 0 mm | 0 m/s | - | - |
| 1777564580 | 6.11° C | 50% | - | 0 mm | 0 m/s | - | - |
| 1777564279 | 5.56° C | 51% | - | 0 mm | 0 m/s | - | - |
| 1777563981 | 5.56° C | 51% | - | 0 mm | 0 m/s | - | - |
| 1777563683 | 4.44° C | 52% | - | 0 mm | 0 m/s | - | - |
| 1777563084 | 5° C | 53% | - | 0 mm | 0 m/s | - | - |
| 1777562786 | 5° C | 54% | - | 0 mm | 0 m/s | - | - |
| 1777562187 | 5° C | 56% | - | 0 mm | 0 m/s | - | - |
| 1777561890 | 5° C | 58% | - | 0 mm | 0 m/s | - | - |
| 1777561291 | 5.56° C | 58% | - | 0 mm | 0 m/s | - | - |
| 1777560993 | 5.56° C | 57% | - | 0 mm | 0 m/s | - | - |
| 1777560692 | 5° C | 59% | - | 0 mm | 0 m/s | - | - |
| 1777560394 | 5.56° C | 58% | - | 0 mm | 0 m/s | - | - |
| 1777560096 | 5° C | 60% | - | 0 mm | 0 m/s | - | - |
| 1777559795 | 4.44° C | 59% | - | 0 mm | 0 m/s | - | - |
* Rain latest hour (hover to see other rain measurements)
** Current wind speed in m/s (hover to see current wind gust speed)